This demonstration page uses our WeatherBlox Daily Observations layout. Learn more.

Left ArrowRight Arrow

34.02893, -84.19858

Hourly Observations for May 31, 2015

Temp ( °F °C ) Dew Point ( °F °C ) Humidity (%) Winds ( mph kmh ) Pressure ( in mb ) Visibility ( mi km ) Precip ( " mm )
12:53 am 00:53 Clear 70 21.1 66 18.9 87 87 Calm 30.04 1017 9 14 0.00 0.00
1:53 am 01:53 Partly Cloudy 71 21.7 66 18.9 84 84 SSE 3 6 30.04 1017 9 14 0.00 0.00
2:53 am 02:53 Partly Cloudy 70 21.1 66 18.9 87 87 SSE 3 6 30.03 1017 9 14 0.00 0.00
3:53 am 03:53 Mostly Clear 68 20 66 18.9 93 93 Calm 30.03 1017 9 14 0.00 0.00
4:53 am 04:53 Mostly Clear 68 20 66 18.9 93 93 Calm 30.03 1017 8 13 0.00 0.00
5:53 am 05:53 Clear 67 19.4 66 18.9 97 97 ESE 3 6 30.04 1017 7 11 0.00 0.00
6:53 am 06:53 Sunny with Mist and Fog 67 19.4 66 18.9 97 97 Calm 30.06 1018 6 10 0.00 0.00
7:53 am 07:53 Sunny with Mist and Fog 70 21.1 67 19.4 90 90 SSE 3 6 30.05 1018 6 10 0.00 0.00
8:53 am 08:53 Mostly Sunny 74 23.3 69 20.6 85 85 S 8 13 30.06 1018 7 11 0.00 0.00
9:53 am 09:53 Sunny 76 24.4 69 20.6 79 79 SSE 6 9 30.06 1018 8 13 0.00 0.00
10:53 am 10:53 Mostly Sunny 81 27.2 69 20.6 67 67 VRB 3 6 30.06 1018 8 13 0.00 0.00
11:53 am 11:53 Mostly Cloudy 82 27.8 69 20.6 65 65 SSW 8 13 30.06 1018 9 14 0.00 0.00
12:53 pm 12:53 Mostly Cloudy 84 28.9 68 20 59 59 S 9 15 30.03 1017 9 14 0.00 0.00
1:22 pm 13:22 Mostly Cloudy with Rain 75 24 66 19 74 74 WSW 13 20 30.06 1018 2 3 0.00 0.00
1:36 pm 13:36 Cloudy with Light Rain 73 23 66 19 78 78 SSW 8 13 30.06 1018 4 6 0.00 0.00
1:53 pm 13:53 Cloudy with Light Rain 71 21.7 66 18.9 84 84 S 7 11 30.04 1017 7 11 0.07 1.78
2:53 pm 14:53 Mostly Sunny 78 25.6 70 21.1 76 76 E 3 6 30.01 1016 9 14 0.00 0.03
3:30 pm 15:30 Mostly Cloudy with Thunderstorms 75 24 68 20 78 78 E 12 19 30.03 1017 9 14 0.00 0.00
3:53 pm 15:53 Mostly Cloudy with Thunderstorms 71 21.7 66 18.9 84 84 SE 9 15 30.02 1017 6 10 0.00 0.03
4:51 pm 16:51 Sunny 73 23 66 19 78 78 N 7 11 30.03 1017 10 16 0.00 0.03
4:53 pm 16:53 Sunny 74 23.3 67 19.4 79 79 N 8 13 30.03 1017 10 16 0.00 0.03
5:53 pm 17:53 Cloudy 74 23.3 67 19.4 79 79 E 5 7 30.01 1016 10 16 0.00 0.00
6:53 pm 18:53 Mostly Sunny 75 23.9 67 19.4 76 76 NNE 8 13 29.99 1016 10 16 0.00 0.00
7:53 pm 19:53 Partly Cloudy 73 22.8 65 18.3 76 76 Calm 30.00 1016 10 16 0.00 0.00
8:53 pm 20:53 Partly Cloudy 72 22.2 66 18.9 82 82 S 13 20 30.04 1017 10 16 0.00 0.00
9:53 pm 21:53 Partly Cloudy with Light Rain 69 20.6 66 18.9 90 90 S 7 11 30.06 1018 10 16 0.03 0.76
10:53 pm 22:53 Mostly Clear 68 20 66 18.9 93 93 S 3 6 30.03 1017 10 16 0.01 0.25
11:53 pm 23:53 Partly Cloudy 68 20 66 18.9 93 93 E 3 6 30.02 1017 10 16 0.00 0.03

Powered by AerisWeather